{"data":{"norad_id":53724,"intl_designator":"2022-107AA","name":"STARLINK-4663","alt_names":[],"object_type":"PAYLOAD","status":"ACTIVE","operator":null,"country":"US","launch_date":"2022-09-05","launch_site_code":"AFETR","launch_vehicle":null,"mission":null,"orbit_class":"UNKNOWN","rcs_meters":null,"size_class":null,"mass_kg":null,"dimensions":null,"purposes":["comms"],"wikipedia_slug":null,"has_3d_model":false,"image_url":null,"decayed_at":null,"tle_current":{"epoch":"2026-09-20T21:27:14.821920Z","epoch_age_seconds":47672,"freshness":"FRESH","line1":"1 53724U 22107AA  26263.89392155 -.00004275  00000+0 -11186-3 0  9993","line2":"2 53724  53.1582  82.3553 0000938  94.4281 265.6829 15.35361171224099","mean_motion":15.35361171,"eccentricity":9.38e-5,"inclination_deg":53.1582,"raan_deg":82.3553,"arg_perigee_deg":94.4281,"mean_anomaly_deg":265.6829,"bstar":-0.00011186,"rev_number":22409,"period_min":93.789007251115,"perigee_km":459.20652490786,"apogee_km":460.48933088033,"semimajor_km":6837.9849278941,"source":"CELESTRAK","updated_at":"2026-09-21T09:00:32.986152Z"}}}